Terug naar catalogus

ARIANE 6004 ULPM

ActiefMEO
NORAD 67161·ROCKET BODY·🇪🇺 EU
Deze satellietnaam is nog niet bevestigd door officiële bronnen.

Gelanceerd Dec 17, 2025 vanaf Guiana Space Centre

Loading…

Volgende Passages (komende 24 uur)

TLE

VersSource: Space-Track

Epoch: Sep 12, 2026, 23:11 UTC

1 67161U 25302B   26255.96663635  .00000006  00000-0  00000-0 0  9993
2 67161  54.3992  99.3160 0004231 268.9990  91.0374  1.72972845  4683

Volg ARIANE 6004 ULPM in realtime met AllMySat

Download on the App Store